Weather History for Locarno-Monti, Switzerland

Change the Weather History Date:

Tuesday, April 9, 2013

  Actual Average Record
Temperature  
Mean Temperature 42 °F -  
Max Temperature 47 °F 63 °F - ()
Min Temperature 38 °F 44 °F - ()
Degree Days  
Heating Degree Days 22    
Moisture  
Dew Point 38 °F    
Average Humidity 77    
Maximum Humidity 91    
Minimum Humidity 56    
Precipitation  
Precipitation 0.02 in - - ()
Sea Level Pressure  
Sea Level Pressure 29.81 in    
Wind  
Wind Speed 2 mph ()    
Max Wind Speed 4 mph    
Max Gust Speed -    
Visibility 6.7 miles    
Events      
T = Trace of Precipitation, MM = Missing Value Source: Averaged Metar Reports

Daily Weather History Graph

Daily Weather History Graph

Search for Another Location

Airport:

Trip Planner

Search our weather history database for the weather conditions in past years. The results will help you decide how hot, cold, wet, or windy it might be!

Date:

Astronomy

Apr. 09, 2013 Rise Set
Actual Time 6:49 AM CEST 8:04 PM CEST
Civil Twilight 6:18 AM CEST 8:35 PM CEST
Nautical Twilight 5:41 AM CEST 9:12 PM CEST
Astronomical Twilight 5:02 AM CEST 9:52 PM CEST
Moon 6:05 AM CEST (4/9) 7:22 PM CEST (4/9)
Length of Visible Light 14h 16m
Length of Day
13h 14m
Waning Crescent, 1% of the Moon is Illuminated
Apr 9
Waning Crescent
Apr 10
New
Apr 18
First Quarter
Apr 25
Full
May 2
Last Quarter

Hourly Weather History & Observations

Time (CEST) Temp. Dew Point Humidity Pressure Visibility Wind Dir Wind Speed Gust Speed Precip Events Conditions
12:00 AM 41 °F 38 °F 85% 29.81 in - WSW 1.2 mph - -  
1:00 AM 41 °F 39 °F 90% 29.81 in - Calm Calm - -  
2:00 AM 41 °F 39 °F 91% 29.80 in - ENE 2.3 mph - -  
3:00 AM 41 °F 39 °F 89% 29.79 in - SSW 1.2 mph - -  
4:00 AM 41 °F 38 °F 86% 29.79 in - WNW 1.2 mph - -  
6:00 AM 39 °F 36 °F 83% 29.80 in - North 1.2 mph - -  
7:00 AM 40 °F 37 °F 87% 29.81 in - West 1.2 mph - -  
8:00 AM 41 °F 37 °F 82% 29.82 in 4 mi SSW 1.2 mph - -   Mist
9:00 AM 42 °F 38 °F 79% 29.83 in - South 2.3 mph - -  
10:00 AM 42 °F 37 °F 75% 29.83 in - WSW 2.3 mph - -  
12:00 PM 45 °F 38 °F 68% 29.84 in - SSW 3.5 mph - -  
1:00 PM 46 °F 36 °F 59% 29.82 in - SSW 2.3 mph - -  
2:00 PM 47 °F 36 °F 56% 29.81 in 8 mi WSW 3.5 mph - -   Haze
3:00 PM 46 °F 37 °F 62% 29.80 in - West 2.3 mph - -  
4:00 PM 45 °F 39 °F 72% 29.80 in - WNW 3.5 mph - -  
6:00 PM 45 °F 41 °F 82% 29.82 in - WSW 2.3 mph - -  
7:00 PM 46 °F 39 °F 69% 29.81 in - WNW 1.2 mph - -  
8:00 PM 44 °F 39 °F 78% 29.81 in 8 mi North 2.3 mph - -   Mist
9:00 PM 43 °F 37 °F 72% 29.83 in - North 3.5 mph - -  
10:00 PM 43 °F 38 °F 77% 29.85 in - NNE 3.5 mph - -